967  
ASUS43 KMPX 241110  
RWRMN  
WEATHER ROUNDUP FOR MINNESOTA  
NATIONAL WEATHER SERVICE TWIN CITIES/CHANHASSEN MN  
600 AM CDT FRI OCT 24 2014  
 
NOTE: "FAIR" INDICATES FEW OR NO CLOUDS BELOW 12,000 FEET WITH NO  
SIGNIFICANT WEATHER AND/OR S TO VISIBILITY
. N/A MEANS  
CURRENT SKY AND/OR WEATHER CONDITIONS ARE NOT AVAILABLE.  
 
MNZ060>063-068>070-241200-  
TWIN CITIES METRO  
 
CITY SKY/WX TMP DP RH WIND PRES REMARKS
 
TWIN CITIES MOCLDY 46 44 93 E7 29.92F  
ST PAUL MOCLDY 46 46 100 SE3 29.93F  
CRYSTAL MOCLDY 49 45 86 SE5 29.89F  
BLAINE MOCLDY 48 48 100 SE5 29.90F  
LAKEVILLE MOCLDY 39 39 100 CALM 29.92S FOG  
EDEN PRAIRIE MOCLDY 50 44 80 SE7 29.89F  
SOUTH ST PAUL MOCLDY 46 45 96 CALM 29.92F FOG  
LAKE ELMO FAIR 45 45 100 CALM 29.94F FOG  

 
MNZ001>005-007-008-013>017-022>024-027-028-241200-  
NORTHWEST MINNESOTA  
 
CITY SKY/WX TMP DP RH WIND PRES REMARKS
 
BEMIDJI CLOUDY 51 42 71 S8 29.79F  
HALLOCK CLOUDY 45 37 76 S8 29.71S  
ROSEAU CLOUDY 50 43 76 S6 29.73R  
WARROAD CLOUDY 52 43 71 SW9 29.73R  
THIEF RVR FALL CLOUDY 48 39 71 SW12 29.76S  
CROOKSTON PTCLDY 45 41 87 S10 29.77S  
FOSSTON CLOUDY 48 41 76 SW5 29.79R  
DETROIT LAKES CLOUDY 46 43 87 S6 29.82S  
MOORHEAD MOCLDY 45 45 100 S8 29.81S  
PARK RAPIDS CLOUDY 47 41 80 SE6 29.82F  
MAHNOMEN FAIR 48 42 79 S12 29.79S  

 
MNZ006-009>011-018-025>026-241200-  
NORTH CENTRAL MINNESOTA  
 
CITY SKY/WX TMP DP RH WIND PRES REMARKS
 
BAUDETTE CLOUDY 51 41 68 SW6 29.73S  
FLAG ISLAND CLOUDY 50 45 81 SE6 29.70S  
INTL FALLS CLOUDY 53 42 66 S5 29.75F  
WASKISH CLOUDY 55 45 67 S7 29.74F  
BIG FORK CLOUDY 52 43 71 S5 29.81S  
LONGVILLE CLOUDY 43 39 87 CALM 29.83F  
GRAND RAPIDS CLOUDY 48 41 76 S12 29.84S  
CRANE LAKE CLOUDY 50 43 76 S5 29.81F  
ORR CLOUDY 50 41 71 CALM 29.79S  
COOK CLOUDY 52 43 71 S6 29.83S  
WALKER FAIR 50 42 71 S6 29.81F  

 
MNZ012-019>021-037-241200-  
NORTHEAST MINNESOTA  
 
CITY SKY/WX TMP DP RH WIND PRES REMARKS
 
DULUTH CLOUDY 48 45 89 S8 29.88F FOG  
ELY MOCLDY 48 43 81 S6 29.84F  
HIBBING CLOUDY 38 35 89 CALM 29.85F  
EVELETH CLOUDY 39 37 93 CALM 29.86F FOG  
DULUTH HARBOR CLOUDY 46 45 93 CALM 29.90F FOG  
TWO HARBORS HAZE 46 37 71 CALM 29.87F VSB 1/4  
SILVER BAY CLOUDY 48 48 100 S3 29.86F FOG  
GRAND MARAIS N/A 48 47 96 SW5 29.90F  
G MARAIS ARPRT FOG 45 43 93 S5 29.89F VSB 1/4  

 
MNZ029>031-032-039>041-046>048-054>057-064-241200-  
WEST CENTRAL MINNESOTA  
 
CITY SKY/WX TMP DP RH WIND PRES REMARKS
 
FERGUS FALLS CLOUDY 46 39 76 SE7 29.83F  
WHEATON CLOUDY 39 37 93 SE5 29.84S  
MORRIS CLOUDY 45 43 93 SE6 29.82F  
ALEXANDRIA CLOUDY 48 43 82 SE3 29.85S  
ELBOW LAKE FAIR 46 43 89 SE8 29.82F  
WADENA CLOUDY 45 39 81 SE3 29.83F  
GLENWOOD MOCLDY 46 43 87 S5 29.84F  
APPLETON MOCLDY 45 41 87 SE5 29.82F  
BENSON MOCLDY 48 45 87 S8 29.83F  
ORTONVILLE MOCLDY 46 43 87 SE5 29.82F  
MADISON MOCLDY 45 43 93 E5 29.83F  
WILLMAR FAIR 46 41 81 SE3 29.86F  

 
MNZ033>034-036-042>043-049>051-058-059-241200-  
CENTRAL MINNESOTA  
 
CITY SKY/WX TMP DP RH WIND PRES REMARKS
 
ST CLOUD CLOUDY 50 41 71 SE8 29.87F  
SAUK CENTRE FAIR 46 41 84 SE3 29.85F  
PAYNESVILLE MOCLDY 47 41 81 E7 29.86F  
AITKIN CLOUDY 52 45 76 S8 29.84F  
PINE RIVER CLOUDY 45 39 81 CALM 29.88S  
BRAINERD CLOUDY 49 41 74 S8 29.85F  
STAPLES CLOUDY 46 41 81 S3 29.84F  
LONG PRAIRIE FAIR 45 41 87 SE6 29.85F  
LITTLE FALLS CLOUDY 46 37 71 SE3 29.86F  
LITCHFIELD PTCLDY 52 43 71 SE5 29.86F  
BUFFALO CLOUDY 48 41 76 CALM 29.89F  
MAPLE LAKE MOCLDY 49 44 83 SE6 29.89F  

 
MNZ037-044-045-052-053-241200-  
EAST CENTRAL MINNESOTA  
 
CITY SKY/WX TMP DP RH WIND PRES REMARKS
 
PRINCETON CLOUDY 48 45 87 CALM 29.89F  
MORA FOG 41 41 100 CALM 29.91F VSB 1/2  
CAMBRIDGE MOCLDY 48 41 76 SE7 29.88F  
RUSH CITY CLOUDY 47 46 97 SE8 29.91F  
MOOSE LAKE CLOUDY 46 45 93 SW5 29.88S FOG  
HINCKLEY FOG 46 46 100 CALM 29.91F VSB 1/2  
CLOQUET CLOUDY 46 46 100 S5 29.88F FOG  
MCGREGOR CLOUDY 48 45 87 S6 29.87S  

 
MNZ071>073-080-081-089-090-097-098-241200-  
SOUTHWEST MINNESOTA  
 
CITY SKY/WX TMP DP RH WIND PRES REMARKS
 
MONTEVIDEO MOCLDY 45 43 93 S6 29.84F  
GRANITE FALLS MOCLDY 46 43 88 CALM 29.85F  
CANBY MOCLDY 54 49 84 SW6 29.83S  
MARSHALL MOCLDY 52 45 76 SW9 29.83R  
REDWOOD FALLS MOCLDY 46 42 86 SE8 29.84F  
OLIVIA MOCLDY 50 45 81 SE3 29.85S  
PIPESTONE PTCLDY 50 46 87 SW5 29.85S  
WINDOM FAIR 52 46 82 S5 29.86F  
WORTHINGTON PTCLDY 54 46 76 S9 29.87S  
JACKSON PTCLDY 52 45 76 S8 29.87F  
TRACY MOCLDY 54 48 81 SW14 29.84S  
SLAYTON PTCLDY 52 48 87 S13 29.85F  

 
MNZ065>067-074>077-082>085-091>093-241200-  
SOUTH CENTRAL MINNESOTA  
 
CITY SKY/WX TMP DP RH WIND PRES REMARKS
 
MANKATO MOCLDY 50 41 71 SE10 29.89F  
NEW ULM MOCLDY 48 45 87 SE8 29.86F  
ST JAMES MOCLDY 54 45 71 SE9 29.87F  
FAIRMONT MOCLDY 48 43 81 S12 29.88F  
GLENCOE PTCLDY 49 44 81 SE3 29.87F  
FARIBAULT MOCLDY 52 46 82 S8 29.93S  
OWATONNA MOCLDY 52 46 82 S12 29.93S  
WASECA MOCLDY 46 41 81 SE9 29.93F  
ALBERT LEA MOCLDY 46 46 100 S6 29.94S  

 
MNZ078>079-086>088-094>096-241200-  
SOUTHEAST MINNESOTA  
 
CITY SKY/WX TMP DP RH WIND PRES REMARKS
 
ROCHESTER FOG 45 44 97 S9 29.97F VSB 1/4  
RED WING PTCLDY 46 46 100 E5 29.95S FOG  
STANTON MOCLDY 50 45 83 S6 29.91F  
DODGE CENTER MOCLDY 46 46 100 S8 29.94F FOG  
WINONA CLOUDY 52 50 93 SE6 29.99S  
AUSTIN MOCLDY 45 45 100 SE5 29.95F FOG  
PRESTON FOG 47 46 98 S7 29.99S VSB 1/4  

 
ABBREVIATIONS USED IN REMARKS  
TC - TEMPERATURES IN CELSIUS  
WCI - WIND CHILL INDEX  
HX - HEAT INDEX  
VSB - VISIBILITY  

 
 
CLICK HERE TO GO TO PREVIOUS BULLETINS.

The Nexlab MN Page Main Text Page